Regional Weather Roundup
Issued by NWS

Home | Current Version | Previous Version | Graphics & Text | Print | Product List | Glossary On
Versions: 1 2 3 4 5 6 7 8 9 10 11 12 13 14 15 16 17 18 19 20 21 22 23 24 25 26 27 28 29 30 31 32 33 34 35 36 37 38 39 40 41 42 43 44 45 46 47 48 49 50
000
ASUS43 KFSD 270910
RWRSD

WEATHER ROUNDUP FOR SOUTH DAKOTA
NATIONAL WEATHER SERVICE SIOUX FALLS SD
300 AM CST THU NOV 27 2014

NOTE: "FAIR" INDICATES FEW OR NO CLOUDS BELOW 12,000 FEET WITH NO
SIGNIFICANT WEATHER AND/OR OBSTRUCTIONS TO VISIBILITY.


SDZ001>005-009-010-012>017-271000-
NORTHWEST AND NORTH CENTRAL SOUTH DAKOTA

CITY           SKY/WX    TMP DP  RH WIND       PRES   REMARKS
BUFFALO          N/A     20  15  81 SE15      30.13F WCI   6
FAITH            N/A     14  10  84 SE12      30.29F WCI   0
MOBRIDGE       PTCLDY     0  -5  79 E10       30.40F WCI -16
$$

SDZ012>016-024>037-041>051-057-063-072>074-271000-
SOUTHWEST AND SOUTH CENTRAL SOUTH DAKOTA

CITY           SKY/WX    TMP DP  RH WIND       PRES   REMARKS
RAPID CTY ARPT CLOUDY    21  19  92 E6        30.24S WCI  13
PIERRE         CLOUDY     8   4  83 E8        30.42F WCI  -4
CUSTER         CLOUDY    23  20  88 W5        30.12S WCI  17
ELLSWORTH AFB  CLOUDY    20  19  93 E6        30.22F WCI  13
PHILIP         CLOUDY    19  14  81 E12       30.35R WCI   7
PINE RIDGE     MOCLDY    28  24  85 S6        30.22F WCI  22
SPEARFISH      MOCLDY    19  19 100 E5        30.15F FOG     WCI  13
WINNER         CLOUDY    17   8  67 E10       30.40S WCI   5
$$

SDZ004>011-016>023-039-040-271000-
NORTHEAST SOUTH DAKOTA

CITY           SKY/WX    TMP DP  RH WIND       PRES   REMARKS
ABERDEEN       MOCLDY   -11 -17  75 CALM      30.53R
WATERTOWN      PTCLDY   -13 -17  82 NE3       30.46R
SISSETON         N/A    -10 -15  78 NW5       30.53R WCI -22
$$

SDZ017-020-022-023-036>040-048>070-271000-
SOUTHEAST SOUTH DAKOTA

CITY           SKY/WX    TMP DP  RH WIND       PRES   REMARKS
SIOUX FALLS    PTCLDY    -2  -8  76 N7        30.49F WCI -15
HURON          MOCLDY    -5 -10  79 NW3       30.53R
CHAMBERLAIN    CLOUDY    11   4  73 E7        30.45F WCI   1
MITCHELL       CLOUDY     6  -2  69 N3        30.54R
YANKTON        CLOUDY    10   3  72 N8        30.52S WCI  -1
$$

ABBREVIATIONS USED IN REMARKS
   TC - TEMPERATURE IN CELSIUS
  WCI - WIND CHILL INDEX
   HX - HEAT INDEX
  VSB - VISIBILITY



USA.gov is the U.S. government's official web portal to all federal, state and local government web resources and services.